CST,Max TemperatureF,Mean TemperatureF,Min TemperatureF,Max Dew PointF,MeanDew PointF,Min DewpointF,Max Humidity, Mean Humidity, Min Humidity, Max Sea Level PressureIn, Mean Sea Level PressureIn, Min Sea Level PressureIn, Max VisibilityMiles, Mean VisibilityMiles, Min VisibilityMiles, Max Wind SpeedMPH, Mean Wind SpeedMPH, Max Gust SpeedMPH,PrecipitationIn, CloudCover, Events, WindDirDegrees
2012-11-1,75,59,43,59,50,42,93,71,49,30.10,30.02,29.96,10,8,5,8,1,10,0.00,0,,155
2012-11-2,82,66,50,64,57,49,100,74,47,30.03,29.98,29.95,10,8,5,14,3,20,0.00,0,,230
2012-11-3,81,69,56,66,60,55,100,76,51,30.09,30.04,29.99,10,9,1,18,5,28,0.18,1,,214
2012-11-4,64,57,50,59,51,47,93,79,65,30.20,30.14,30.08,10,8,2,15,6,22,0.44,5,Rain-Thunderstorm,36
2012-11-5,62,55,47,55,49,45,100,86,72,30.11,30.02,29.95,10,7,0,7,1,10,0.01,5,Fog,312
2012-11-6,63,53,43,49,46,41,100,74,48,30.14,30.07,30.02,10,7,0,13,4,17,0.00,4,Fog,317
2012-11-7,67,54,40,43,38,32,96,62,28,30.17,30.12,30.07,10,10,10,16,4,22,0.00,0,,317
2012-11-8,65,51,36,43,39,35,92,66,40,30.27,30.19,30.14,10,10,10,13,4,17,0.00,0,,135
2012-11-9,74,60,46,51,46,41,86,62,38,30.20,30.13,30.07,10,10,10,15,7,20,0.00,0,,155
2012-11-10,77,64,51,58,55,50,100,75,50,30.18,30.09,30.03,10,9,5,17,8,23,0.00,0,,152
2012-11-11,73,63,53,65,60,51,93,79,64,30.17,30.00,29.93,10,7,1,24,12,32,1.00,7,Rain-Thunderstorm,175
2012-11-12,55,44,32,52,39,28,96,66,35,30.49,30.36,30.16,10,10,10,17,6,22,0.01,3,Rain,333
2012-11-13,56,43,29,37,31,27,92,64,35,30.55,30.46,30.39,10,10,9,15,4,20,0.00,0,,24
2012-11-14,58,46,33,36,32,29,96,65,33,30.44,30.38,30.33,10,10,6,10,3,18,0.00,1,,2
2012-11-15,57,43,28,38,31,27,92,64,35,30.39,30.34,30.29,10,10,7,12,2,16,0.00,0,,32
2012-11-16,62,46,29,37,31,28,100,64,27,30.43,30.38,30.34,10,8,1,13,4,17,0.00,0,,11
2012-11-17,65,48,31,40,33,29,92,60,28,30.44,30.38,30.33,10,9,7,8,2,10,0.00,0,,14
2012-11-18,67,50,32,43,36,30,92,62,32,30.38,30.33,30.28,10,10,7,8,1,12,0.00,0,,108
2012-11-19,70,55,39,49,43,37,92,62,31,30.31,30.25,30.19,10,10,9,8,1,12,0.00,3,,195
2012-11-20,75,62,48,54,49,43,93,64,35,30.23,30.17,30.12,10,10,8,8,1,14,T,3,,254
2012-11-21,72,57,42,49,46,40,93,64,35,30.30,30.22,30.17,10,9,6,9,3,14,0.00,0,,360
2012-11-22,73,56,39,50,45,38,100,69,38,30.23,30.16,30.10,10,9,4,13,3,16,0.00,0,,189
2012-11-23,65,53,41,55,42,26,93,64,34,30.37,30.28,30.15,10,9,4,17,5,24,0.03,4,Rain,344
2012-11-24,54,41,28,32,26,20,89,59,28,30.42,30.31,30.19,10,10,10,12,2,16,0.00,0,,1
2012-11-25,65,47,29,37,32,26,92,62,31,30.17,30.07,29.98,10,10,10,14,4,16,0.00,0,,157
2012-11-26,66,57,47,61,54,38,93,80,66,30.17,30.03,29.96,10,9,5,21,6,30,T,7,Rain-Thunderstorm,100
2012-11-27,56,44,32,45,35,30,96,67,38,30.40,30.31,30.18,10,10,10,18,7,25,0.00,3,,12
2012-11-28,59,44,28,35,32,26,100,68,36,30.51,30.41,30.36,10,9,6,8,1,10,0.00,0,,75
2012-11-29,64,47,30,37,33,27,92,62,32,30.38,30.29,30.22,10,10,9,13,2,15,0.00,0,,147
2012-11-30,69,52,34,55,46,32,93,78,63,30.25,30.20,30.14,10,10,7,10,3,13,0.00,2,,158